This is the latest recevied weather packets stored in our database for station/object DB0RES-5. If no packets are shown the sender has not sent any weather packets the latest 10 day(s).
| Time | Temp. | Humidity | Pressure | Rain* | Wind** | Luminosity | Snow |
|---|---|---|---|---|---|---|---|
| 1777635317 | 20° C | 32% | 1026.6 hPa | 0 mm | - | - | - |
| 1777634774 | 20° C | 32% | 1026.7 hPa | 0 mm | - | - | - |
| 1777634172 | 20° C | 31% | 1026.8 hPa | 0 mm | - | - | - |
| 1777633569 | 20° C | 33% | 1026.9 hPa | 0 mm | - | - | - |
| 1777632967 | 19.44° C | 32% | 1027 hPa | 0 mm | - | - | - |
| 1777631761 | 19.44° C | 33% | 1027.2 hPa | 0 mm | - | - | - |
| 1777631159 | 18.89° C | 34% | 1027.1 hPa | 0 mm | - | - | - |
| 1777630556 | 18.89° C | 35% | 1027.2 hPa | 0 mm | - | - | - |
| 1777629954 | 18.33° C | 35% | 1027.5 hPa | 0 mm | - | - | - |
| 1777628749 | 18.33° C | 34% | 1027.7 hPa | 0 mm | - | - | - |
| 1777628146 | 18.33° C | 35% | 1027.9 hPa | 0 mm | - | - | - |
| 1777627543 | 18.33° C | 35% | 1027.9 hPa | 0 mm | - | - | - |
| 1777626941 | 17.78° C | 35% | 1027.9 hPa | 0 mm | - | - | - |
| 1777626338 | 17.22° C | 35% | 1028 hPa | 0 mm | - | - | - |
| 1777625736 | 17.22° C | 35% | 1028.2 hPa | 0 mm | - | - | - |
| 1777625133 | 17.22° C | 34% | 1028.2 hPa | 0 mm | - | - | - |
| 1777624531 | 17.22° C | 37% | 1028.1 hPa | 0 mm | - | - | - |
| 1777623928 | 16.67° C | 38% | 1028.2 hPa | 0 mm | - | - | - |
| 1777623326 | 16.11° C | 41% | 1028.2 hPa | 0 mm | - | - | - |
| 1777622723 | 16.11° C | 41% | 1028.3 hPa | 0 mm | - | - | - |
| 1777622120 | 16.11° C | 42% | 1028.3 hPa | 0 mm | - | - | - |
| 1777621518 | 15.56° C | 44% | 1028.3 hPa | 0 mm | - | - | - |
| 1777620915 | 15.56° C | 45% | 1028.3 hPa | 0 mm | - | - | - |
| 1777620373 | 15° C | 46% | 1028.2 hPa | 0 mm | - | - | - |
| 1777619770 | 15° C | 48% | 1028.3 hPa | 0 mm | - | - | - |
* Rain latest hour (hover to see other rain measurements)
** Current wind speed in m/s (hover to see current wind gust speed)